Time,TemperatureF,DewpointF,PressureIn,WindDirection,WindDirectionDegrees,WindSpeedMPH,WindSpeedGustMPH,Humidity,HourlyPrecipIn,Conditions,Clouds,dailyrainin,SolarRadiationWatts/m^2,SoftwareType,DateUTC
2013-05-23 00:11:00,43.0,42.0,-100.00,WSW,248,0.0,2.0,95,0.01,,,0.02,2.000000,,2013-05-23 08:11:00,
2013-05-23 00:21:00,43.0,42.0,-100.00,WSW,248,0.0,2.0,95,0.01,,,0.02,2.000000,,2013-05-23 08:21:00,
2013-05-23 00:52:00,43.0,42.0,-100.00,WNW,294,0.0,2.0,97,0.01,,,0.03,0.000000,,2013-05-23 08:52:00,
2013-05-23 01:01:00,43.0,42.0,-100.00,WNW,294,0.0,2.0,97,0.01,,,0.03,0.000000,,2013-05-23 09:01:00,
2013-05-23 01:11:00,43.0,42.0,-100.00,WNW,294,0.0,2.0,97,0.01,,,0.03,0.000000,,2013-05-23 09:11:00,
2013-05-23 01:21:00,43.0,42.0,-100.00,WNW,294,0.0,2.0,97,0.01,,,0.03,0.000000,,2013-05-23 09:21:00,
2013-05-23 01:53:00,43.0,42.0,-100.00,NNE,13,0.0,1.0,97,0.00,,,0.03,0.000000,,2013-05-23 09:53:00,
2013-05-23 02:02:00,43.0,42.0,-100.00,NNE,13,0.0,1.0,97,0.00,,,0.03,0.000000,,2013-05-23 10:02:00,
2013-05-23 02:12:00,43.0,42.0,-100.00,NNE,13,0.0,1.0,97,0.00,,,0.03,0.000000,,2013-05-23 10:12:00,
2013-05-23 02:22:00,43.0,42.0,-100.00,NNE,13,0.0,1.0,97,0.00,,,0.03,0.000000,,2013-05-23 10:22:00,
2013-05-23 02:52:00,42.0,41.0,-100.00,SW,235,0.0,1.0,98,0.01,,,0.04,0.000000,,2013-05-23 10:52:00,
2013-05-23 03:02:00,42.0,41.0,-100.00,SW,235,0.0,1.0,98,0.01,,,0.04,0.000000,,2013-05-23 11:02:00,
2013-05-23 03:11:00,42.0,41.0,-100.00,SW,235,0.0,1.0,98,0.01,,,0.04,0.000000,,2013-05-23 11:11:00,
2013-05-23 03:21:00,42.0,41.0,-100.00,SW,235,0.0,1.0,98,0.01,,,0.04,0.000000,,2013-05-23 11:21:00,
2013-05-23 03:52:00,42.0,41.0,-100.00,SSW,206,0.0,0.0,98,0.00,,,0.04,0.000000,,2013-05-23 11:52:00,
2013-05-23 04:01:00,42.0,41.0,-100.00,SSW,206,0.0,0.0,98,0.00,,,0.04,0.000000,,2013-05-23 12:01:00,
2013-05-23 04:11:00,42.0,41.0,-100.00,SSW,206,0.0,0.0,98,0.00,,,0.04,0.000000,,2013-05-23 12:11:00,
2013-05-23 04:21:00,42.0,41.0,-100.00,SSW,206,0.0,0.0,98,0.00,,,0.04,0.000000,,2013-05-23 12:21:00,
2013-05-23 04:52:00,42.0,42.0,-100.00,NNE,26,1.0,2.0,99,0.00,,,0.04,0.000000,,2013-05-23 12:52:00,
2013-05-23 05:01:00,42.0,42.0,-100.00,NNE,26,1.0,2.0,99,0.00,,,0.04,0.000000,,2013-05-23 13:01:00,
2013-05-23 05:11:00,42.0,42.0,-100.00,NNE,26,1.0,2.0,99,0.00,,,0.04,0.000000,,2013-05-23 13:11:00,
2013-05-23 05:21:00,42.0,42.0,-100.00,NNE,26,1.0,2.0,99,0.00,,,0.04,0.000000,,2013-05-23 13:21:00,
2013-05-23 05:52:00,42.0,42.0,-100.00,ENE,65,0.0,2.0,99,0.00,,,0.04,1.000000,,2013-05-23 13:52:00,
2013-05-23 06:01:00,42.0,42.0,-100.00,ENE,65,0.0,2.0,99,0.00,,,0.04,1.000000,,2013-05-23 14:01:00,
2013-05-23 06:11:00,42.0,42.0,-100.00,ENE,65,0.0,2.0,99,0.00,,,0.04,1.000000,,2013-05-23 14:11:00,
2013-05-23 06:21:00,42.0,42.0,-100.00,ENE,65,0.0,2.0,99,0.00,,,0.04,1.000000,,2013-05-23 14:21:00,
2013-05-23 06:52:00,42.0,42.0,-100.00,North,349,0.0,3.0,99,0.00,,,0.04,15.000000,,2013-05-23 14:52:00,
2013-05-23 07:01:00,42.0,42.0,-100.00,North,349,0.0,3.0,99,0.00,,,0.04,15.000000,,2013-05-23 15:01:00,
2013-05-23 07:11:00,42.0,42.0,-100.00,North,349,0.0,3.0,99,0.00,,,0.04,15.000000,,2013-05-23 15:11:00,
2013-05-23 07:21:00,42.0,42.0,-100.00,North,349,0.0,3.0,99,0.00,,,0.04,15.000000,,2013-05-23 15:21:00,
2013-05-23 07:53:00,44.0,43.0,-100.00,NNE,31,0.0,3.0,98,0.00,,,0.04,35.000000,,2013-05-23 15:53:00,
2013-05-23 08:03:00,44.0,43.0,-100.00,NNE,31,0.0,3.0,98,0.00,,,0.04,35.000000,,2013-05-23 16:03:00,
2013-05-23 08:12:00,44.0,43.0,-100.00,NNE,31,0.0,3.0,98,0.00,,,0.04,35.000000,,2013-05-23 16:12:00,
2013-05-23 08:22:00,44.0,43.0,-100.00,NNE,31,0.0,3.0,98,0.00,,,0.04,35.000000,,2013-05-23 16:22:00,
2013-05-23 08:52:00,46.0,44.0,-100.00,North,5,1.0,4.0,93,0.00,,,0.04,83.000000,,2013-05-23 16:52:00,
2013-05-23 09:03:00,46.0,44.0,-100.00,North,5,1.0,4.0,93,0.00,,,0.04,83.000000,,2013-05-23 17:03:00,
2013-05-23 09:11:00,46.0,44.0,-100.00,North,5,1.0,4.0,93,0.00,,,0.04,83.000000,,2013-05-23 17:11:00,
2013-05-23 09:22:00,46.0,44.0,-100.00,North,5,1.0,4.0,93,0.00,,,0.04,83.000000,,2013-05-23 17:22:00,
2013-05-23 09:52:00,48.0,44.0,-100.00,North,8,2.0,5.0,85,0.00,,,0.04,169.000000,,2013-05-23 17:52:00,
2013-05-23 10:01:00,48.0,44.0,-100.00,North,8,2.0,5.0,85,0.00,,,0.04,169.000000,,2013-05-23 18:01:00,
2013-05-23 10:11:00,48.0,44.0,-100.00,North,8,2.0,5.0,85,0.00,,,0.04,169.000000,,2013-05-23 18:11:00,
2013-05-23 10:21:00,48.0,44.0,-100.00,North,8,2.0,5.0,85,0.00,,,0.04,169.000000,,2013-05-23 18:21:00,
2013-05-23 10:52:00,49.0,44.0,-100.00,NNW,342,2.0,5.0,82,0.00,,,0.04,178.000000,,2013-05-23 18:52:00,
2013-05-23 11:01:00,49.0,44.0,-100.00,NNW,342,2.0,5.0,82,0.00,,,0.04,178.000000,,2013-05-23 19:01:00,
2013-05-23 11:11:00,49.0,44.0,-100.00,NNW,342,2.0,5.0,82,0.00,,,0.04,178.000000,,2013-05-23 19:11:00,
2013-05-23 11:21:00,49.0,44.0,-100.00,NNW,342,2.0,5.0,82,0.00,,,0.04,178.000000,,2013-05-23 19:21:00,
2013-05-23 11:52:00,50.0,44.0,-100.00,North,360,3.0,7.0,79,0.00,,,0.04,185.000000,,2013-05-23 19:52:00,
2013-05-23 12:02:00,50.0,44.0,-100.00,North,360,3.0,7.0,79,0.00,,,0.04,185.000000,,2013-05-23 20:02:00,
2013-05-23 12:11:00,50.0,44.0,-100.00,North,360,3.0,7.0,79,0.00,,,0.04,185.000000,,2013-05-23 20:11:00,
2013-05-23 12:21:00,50.0,44.0,-100.00,North,360,3.0,7.0,79,0.00,,,0.04,185.000000,,2013-05-23 20:21:00,
2013-05-23 12:52:00,52.0,43.0,-100.00,North,4,2.0,5.0,71,0.00,,,0.04,308.000000,,2013-05-23 20:52:00,
2013-05-23 13:01:00,52.0,43.0,-100.00,North,4,2.0,5.0,71,0.00,,,0.04,308.000000,,2013-05-23 21:01:00,
2013-05-23 13:11:00,52.0,43.0,-100.00,North,4,2.0,5.0,71,0.00,,,0.04,308.000000,,2013-05-23 21:11:00,
2013-05-23 13:21:00,52.0,43.0,-100.00,North,4,2.0,5.0,71,0.00,,,0.04,308.000000,,2013-05-23 21:21:00,
2013-05-23 13:53:00,52.0,43.0,-100.00,West,275,1.0,4.0,71,0.00,,,0.04,234.000000,,2013-05-23 21:53:00,
2013-05-23 14:02:00,52.0,43.0,-100.00,West,275,1.0,4.0,71,0.00,,,0.04,234.000000,,2013-05-23 22:02:00,
2013-05-23 14:12:00,52.0,43.0,-100.00,West,275,1.0,4.0,71,0.00,,,0.04,234.000000,,2013-05-23 22:12:00,
2013-05-23 14:22:00,52.0,43.0,-100.00,West,275,1.0,4.0,71,0.00,,,0.04,234.000000,,2013-05-23 22:22:00,
2013-05-23 14:52:00,54.0,43.0,-100.00,West,281,1.0,4.0,67,0.00,,,0.04,236.000000,,2013-05-23 22:52:00,
2013-05-23 15:01:00,54.0,43.0,-100.00,West,281,1.0,4.0,67,0.00,,,0.04,236.000000,,2013-05-23 23:01:00,
2013-05-23 15:11:00,54.0,43.0,-100.00,West,281,1.0,4.0,67,0.00,,,0.04,236.000000,,2013-05-23 23:11:00,
2013-05-23 15:21:00,54.0,43.0,-100.00,West,281,1.0,4.0,67,0.00,,,0.04,236.000000,,2013-05-23 23:21:00,
2013-05-23 15:52:00,58.0,43.0,-100.00,NNW,334,3.0,8.0,58,0.00,,,0.04,476.000000,,2013-05-23 23:52:00,
2013-05-23 16:01:00,58.0,43.0,-100.00,NNW,334,3.0,8.0,58,0.00,,,0.04,476.000000,,2013-05-24 00:01:00,
2013-05-23 16:11:00,58.0,43.0,-100.00,NNW,334,3.0,8.0,58,0.00,,,0.04,476.000000,,2013-05-24 00:11:00,
2013-05-23 16:21:00,58.0,43.0,-100.00,NNW,334,3.0,8.0,58,0.00,,,0.04,476.000000,,2013-05-24 00:21:00,
2013-05-23 16:52:00,57.0,43.0,-100.00,WNW,290,3.0,10.0,59,0.00,,,0.04,453.000000,,2013-05-24 00:52:00,
2013-05-23 17:01:00,57.0,43.0,-100.00,WNW,290,3.0,10.0,59,0.00,,,0.04,453.000000,,2013-05-24 01:01:00,
2013-05-23 17:12:00,57.0,43.0,-100.00,WNW,290,3.0,10.0,59,0.00,,,0.04,453.000000,,2013-05-24 01:12:00,
2013-05-23 17:22:00,57.0,43.0,-100.00,WNW,290,3.0,10.0,59,0.00,,,0.04,453.000000,,2013-05-24 01:22:00,
2013-05-23 17:52:00,57.0,42.0,-100.00,SW,235,4.0,10.0,57,0.00,,,0.04,402.000000,,2013-05-24 01:52:00,
2013-05-23 18:01:00,57.0,42.0,-100.00,SW,235,4.0,10.0,57,0.00,,,0.04,402.000000,,2013-05-24 02:01:00,
2013-05-23 18:11:00,57.0,42.0,-100.00,SW,235,4.0,10.0,57,0.00,,,0.04,402.000000,,2013-05-24 02:11:00,
2013-05-23 18:21:00,57.0,42.0,-100.00,SW,235,4.0,10.0,57,0.00,,,0.04,402.000000,,2013-05-24 02:21:00,
2013-05-23 18:52:00,56.0,40.0,-100.00,West,276,2.0,8.0,55,0.00,,,-99.99,201.000000,,2013-05-24 02:52:00,
2013-05-23 19:02:00,56.0,40.0,-100.00,West,276,2.0,8.0,55,0.00,,,-99.99,201.000000,,2013-05-24 03:02:00,
2013-05-23 19:11:00,56.0,40.0,-100.00,West,276,2.0,8.0,55,0.00,,,-99.99,201.000000,,2013-05-24 03:11:00,
2013-05-23 19:21:00,56.0,40.0,-100.00,West,276,2.0,8.0,55,0.00,,,-99.99,201.000000,,2013-05-24 03:21:00,
2013-05-23 19:53:00,59.0,41.0,-100.00,WSW,258,3.0,11.0,51,0.00,,,0.04,359.000000,,2013-05-24 03:53:00,
2013-05-23 20:03:00,59.0,41.0,-100.00,WSW,258,3.0,11.0,51,0.00,,,0.04,359.000000,,2013-05-24 04:03:00,
2013-05-23 20:12:00,59.0,41.0,-100.00,WSW,258,3.0,11.0,51,0.00,,,0.04,359.000000,,2013-05-24 04:12:00,
2013-05-23 20:22:00,59.0,41.0,-100.00,WSW,258,3.0,11.0,51,0.00,,,0.04,359.000000,,2013-05-24 04:22:00,
2013-05-23 20:53:00,56.0,40.0,-100.00,WSW,257,4.0,9.0,54,0.00,,,0.03,266.000000,,2013-05-24 04:53:00,
2013-05-23 21:02:00,56.0,40.0,-100.00,WSW,257,4.0,9.0,54,0.00,,,0.03,266.000000,,2013-05-24 05:02:00,
2013-05-23 21:12:00,56.0,40.0,-100.00,WSW,257,4.0,9.0,54,0.00,,,0.03,266.000000,,2013-05-24 05:12:00,
2013-05-23 21:22:00,56.0,40.0,-100.00,WSW,257,4.0,9.0,54,0.00,,,0.03,266.000000,,2013-05-24 05:22:00,
2013-05-23 21:52:00,53.0,39.0,-100.00,West,266,2.0,8.0,59,0.00,,,0.03,70.000000,,2013-05-24 05:52:00,
2013-05-23 22:01:00,53.0,39.0,-100.00,West,266,2.0,8.0,59,0.00,,,0.03,70.000000,,2013-05-24 06:01:00,
2013-05-23 22:12:00,53.0,39.0,-100.00,West,266,2.0,8.0,59,0.00,,,0.03,70.000000,,2013-05-24 06:12:00,
2013-05-23 22:21:00,53.0,39.0,-100.00,West,266,2.0,8.0,59,0.00,,,0.03,70.000000,,2013-05-24 06:21:00,
2013-05-23 22:52:00,47.0,38.0,-100.00,South,185,0.0,5.0,71,0.00,,,0.03,19.000000,,2013-05-24 06:52:00,
2013-05-23 23:01:00,47.0,38.0,-100.00,South,185,0.0,5.0,71,0.00,,,0.03,19.000000,,2013-05-24 07:01:00,
2013-05-23 23:11:00,47.0,38.0,-100.00,South,185,0.0,5.0,71,0.00,,,0.03,19.000000,,2013-05-24 07:11:00,
2013-05-23 23:22:00,47.0,38.0,-100.00,South,185,0.0,5.0,71,0.00,,,0.03,19.000000,,2013-05-24 07:22:00,
2013-05-23 23:52:00,44.0,38.0,-100.00,SW,236,0.0,2.0,78,0.00,,,0.02,5.000000,,2013-05-24 07:52:00,